User: anonymous   Login
Location: Berg
(47.2344°N, 9.5296°E)
Time: 12:26:27
(UTC+00:00)
Language:

PicSat - Orbit

View from above orbital plane
View from above orbital plane
View from above satellite
View from above satellite

Ground track
Ground track

The orbit data is extracted from the following two-line orbital elements,

1 43131U 18004W   21339.74953999  .00005857  00000-0  20963-3 0  9996
2 43131  97.3977  54.6195 0006905 325.4514  34.6277 15.29140828216929
Epoch (UTC): 05 December 2021 17:59:20
Eccentricity: 0.0006905
inclination: 97.3977°
perigee height: 473 km
apogee height: 483 km
right ascension of ascending node: 54.6195°
argument of perigee: 325.4514°
revolutions per day: 15.29140828
mean anomaly at epoch: 34.6277°
orbit number at epoch: 21692

The dashed part of the orbit path shows where the satellite is in the earth's shadow,  

DLR